Location: Asheville, NC
(35.6000°N, 82.5500°W)
Time: 07:55:10
(UTC-04:00)

Vanguard 3 - Pass Details

Date: 17 February 2018
Orbit: 508 x 3264 km, 33.4° (Epoch: 21 May)

Event Time Altitude Azimuth Distance (km) Brightness Sun altitude
Rises 00:25:32 0° 257° (WSW) 3,839 - -66.0°
Reaches altitude 10° 00:30:11 10° 227° (SW) 3,426 - -66.2°
Maximum altitude 00:33:19 12° 206° (SSW) 3,612 - -66.3°
Drops below altitude 10° 00:37:01 10° 186° (S) 4,198 - -66.3°
Sets 00:44:44 0° 162° (SSE) 5,967 - -66.4°
